Flag for U.S.A. Weather past 2 weeks in Baton Rouge, Louisiana, U.S.A.

Now
74 °F

Clear.


Feels Like: 71 °F
Forecast: 77 / 92 °F
Wind: 3 mph from East

Location: Baton Rouge Metropolitan - Ryan Field

Current Time: Aug 21, 2014 at 3:13:00 AM

Latest Report: Aug 21, 2014 at 2:53 AM


Visibility: 10 mi

Pressure: 30.08 "Hg

Humidity: 94%

Dew point: 72 °F

Location of Baton RougeLocation

Historic Weather in Baton Rouge — Graph

°F

Baton Rouge temperature yesterday

Maximum temperature yesterday: 95 °F (at 1:53 PM)
Minimum temperature yesterday: 72 °F (at 5:53 AM)
Average temperature yesterday: 80 °F

Past Weeks' High & Low Weather Summary

 TemperatureHumidityPressure
High95 °F (Aug 20, 1:53 PM)97% (Aug 11, 2:53 AM)30.09 "Hg (Aug 11, 2:53 AM)
Low65 °F (Aug 15, 6:53 AM)41% (Aug 14, 4:53 PM)29.89 "Hg (Aug 12, 6:53 PM)
Average81 °F76%30.00 "Hg
* Reported Aug 6 1:53 AM — Aug 21 1:53 AM, Baton Rouge, Weather by CustomWeather, © 2014

Note: Actual official high and low records may vary slightly from our data, if they occured in-between our weather recording intervals... More about our weather records

Advertising

Baton Rouge weather history for previous 24 hours

 ConditionsComfort  
Time TempWeatherWind HumidityBarometerVisibility
1:53 AM
Aug 21
75 °FClear.3 mph90%30.07 "Hg10 mi
12:53 AM75 °FClear.3 mph94%30.08 "Hg10 mi
11:53 PM
Aug 20
75 °FClear.No wind94%30.07 "Hg10 mi
10:53 PM76 °FClear.5 mph91%30.06 "Hg10 mi
9:53 PM77 °FClear.5 mph88%30.06 "Hg10 mi
8:53 PM79 °FClear.3 mph84%30.06 "Hg10 mi
7:53 PM80 °FPassing clouds.3 mph81%30.06 "Hg10 mi
6:53 PM80 °FSunny.No wind81%30.04 "Hg10 mi
5:53 PM81 °FSunny.5 mph82%30.05 "Hg10 mi
4:53 PM80 °FSunny.No wind79%30.05 "Hg10 mi
3:53 PM81 °FThunderstorms. Partly sunny.12 mph85%30.05 "Hg10 mi
2:53 PM82 °FThunderstorms. Mostly cloudy.10 mph77%30.03 "Hg6 mi
1:53 PM95 °FScattered clouds.3 mph49%30.04 "Hg10 mi
12:53 PM90 °FBroken clouds.3 mph59%30.06 "Hg10 mi
11:53 AM92 °FBroken clouds.7 mph56%30.07 "Hg10 mi
10:53 AM88 °FBroken clouds.No wind65%30.07 "Hg10 mi
9:53 AM87 °FPassing clouds.3 mph67%30.06 "Hg10 mi
8:53 AM82 °FSunny.5 mph77%30.05 "Hg10 mi
7:53 AM76 °FSunny.3 mph88%30.04 "Hg10 mi
6:53 AM73 °FClear.3 mph90%30.02 "Hg10 mi
5:53 AM72 °FClear.No wind93%30.00 "Hg10 mi
4:53 AM73 °FClear.3 mph90%29.98 "Hg10 mi
3:53 AM73 °FClear.No wind90%29.97 "Hg10 mi
Weather by CustomWeather, © 2014

See weather overviewHow to use our weather pages